Location: Eisingen in Unterfranken
(49.7591°N, 9.8347°E)
Time: 06:40:27
(UTC+01:00)

BlueWalker 3 - Pass Details

Date: 06 December 2022
Orbit: 499 x 517 km, 53.2° (Epoch: 28 January)

Event Time Altitude Azimuth Distance (km) Brightness Sun altitude
Rises 17:19:40 0° 284° (WNW) 2,635 6.5 -9.1°
Reaches altitude 10° 17:21:56 10° 290° (WNW) 1,744 5.4 -9.4°
Maximum altitude 17:25:48 53° 8° (N) 638 2.2 -10.0°
Enters shadow 17:29:01 14° 83° (E) 1,489 3.7 -10.5°
